Hourly Weather Roundup
Issued by NWS Central Illinois

Home | Current Version | Previous Version | Text Only | Print | Product List | Glossary On
Versions: 1 2 3 4 5 6 7 8 9 10 11 12 13 14 15 16 17 18 19 20 21 22 23 24 25 26 27 28 29 30 31 32 33 34 35 36 37 38 39 40 41 42 43 44 45 46 47 48 49 50
000
NZUS43 KILX 020310
HWRILX

AREA WEATHER ROUNDUP
NATIONAL WEATHER SERVICE, LINCOLN IL
1000 PM CDT MON SEP 01 2014


CITY           SKY/WX    TMP DP  RH WIND       PRES   REMARKS
BLOOMINGTON    CLOUDY    70  65  84 SW6       29.90R
CHAMPAIGN      CLOUDY    71  67  87 S7        29.90S
DECATUR        LGT RAIN  74  69  85 SW8       29.90R
FLORA          CLEAR     74  67  78 S5        29.94R
GALESBURG      MOCLDY    70  67  92 S3        29.88R
JACKSONVILLE   TSTM      73  71  92 S8        29.92S
LACON          PTCLDY    71  66  83 SW3       29.86R
LAWRENCEVILLE  CLOUDY    74  71  91 SW3       29.93S
LITCHFIELD     TSTM      72  69  93 NW6       29.94R
$$


CITY           SKY/WX    TMP DP  RH WIND       PRES   REMARKS
LINCOLN        CLOUDY    74  68  80 CALM      29.88R
MACOMB         CLOUDY    71  68  89 SW6       29.90R
MATTOON        LGT RAIN  74  67  78 S8        29.90S
MT CARMEL AP   CLOUDY    79  72  78 SW8       29.93S HX  82
OLNEY-NOBLE AP CLOUDY    73  68  83 CALM      29.94R
PARIS          PTCLDY    69  67  92 S3        29.91S
PEORIA         MOCLDY    75  66  73 SW6       29.88R
PONTIAC        CLOUDY    73  70  88 SW3       29.87R
RANTOUL        MOCLDY    72  65  80 S5        29.90R
ROBINSON       MOCLDY    75  72  90 S5        29.93S
SPRINGFIELD    RAIN      73  69  87 SW9       29.92R
TAYLORVILLE    RAIN      72  68  88 SW13      29.93R
$$

...REGIONAL REPORTS...


CITY           SKY/WX    TMP DP  RH WIND       PRES   REMARKS
CHICAGO O`HARE CLOUDY    71  65  81 W7        29.83R
KANKAKEE       PTCLDY    69  66  92 SW6       29.88R
MOLINE         MOCLDY    71  66  84 SW5       29.86R
MOUNT VERNON   MOCLDY    77  68  73 SE5       29.93F
PITTSFIELD     LGT RAIN  72  69  91 S6        29.92R
QUINCY         CLOUDY    74  69  85 S7        29.90R
ROCKFORD       MOCLDY    68  65  90 CALM      29.84S
$$


CITY           SKY/WX    TMP DP  RH WIND       PRES   REMARKS
BURLINGTON     CLOUDY    72  68  87 SW5       29.88R
CEDAR RAPIDS   CLOUDY    67  65  93 W3        29.85S
DES MOINES     CLOUDY    71  64  78 NW6       29.86R
KIRKSVILLE     CLOUDY    71  67  87 CALM      29.90R
OTTUMWA        MOCLDY    67  65  93 W3        29.87S
ST LOUIS       LGT RAIN  74  70  87 NE8       29.89F
$$


CITY           SKY/WX    TMP DP  RH WIND       PRES   REMARKS
TERRE HAUTE    CLEAR     72  66  81 S6        29.92S
EVANSVILLE     MOCLDY    78  73  84 S3        29.96S HX  81
INDIANAPOLIS   PTCLDY    73  67  81 SW9       29.91S
LAFAYETTE      CLEAR     69  65  86 SW3       29.89S
MADISON        PTCLDY    66  60  81 CALM      29.82R
MILWAUKEE      PTCLDY    70  65  84 SW5       29.81R
$$




USA.gov is the U.S. government's official web portal to all federal, state and local government web resources and services.